Location: Corte Bragagnani
(45.3000°N, 11.1000°E)
Time: 11:10:11
(UTC+00:00)

BREEZE-M DEB (TANK) - Pass Details

Date: 09 April 2020
Orbit: 317 x 11716 km, 49.7° (Epoch: 24 May)

Event Time Altitude Azimuth Distance (km) Brightness Sun altitude
Rises 19:36:33 0° 226° (SW) 4,601 8.2 -17.4°
Reaches altitude 10° 19:40:56 10° 219° (SW) 2,561 6.8 -18.1°
Enters shadow 19:44:47 32° 179° (S) 913 4.1 -18.7°
